This demonstration page uses our WeatherBlox Daily Observations layout. Learn more.

Left ArrowRight Arrow

34.74481, -87.66753

Hourly Observations for March 28, 2022

Temp ( °F °C ) Dew Point ( °F °C ) Humidity (%) Winds ( mph kmh ) Pressure ( in mb ) Visibility ( mi km ) Precip ( " mm )
12:53 am 00:53 Partly Cloudy 48 8.9 24 -4.4 39 39 NE 8 13 30.11 1020 10 16 0.00 0.00
1:53 am 01:53 Clear 47 8.3 24 -4.4 41 41 NE 6 9 30.11 1020 10 16 0.00 0.00
2:53 am 02:53 Clear 45 7.2 25 -3.9 46 46 ENE 6 9 30.12 1020 10 16 0.00 0.00
3:53 am 03:53 Cloudy 45 7.2 26 -3.3 48 48 ENE 5 7 30.12 1020 10 16 0.00 0.00
4:53 am 04:53 Cloudy 46 7.8 26 -3.3 46 46 NE 7 11 30.13 1020 10 16 0.00 0.00
5:53 am 05:53 Cloudy 45 7.2 29 -1.7 54 54 E 3 6 30.14 1021 10 16 0.00 0.00
6:53 am 06:53 Cloudy 45 7.2 24 -4.4 44 44 E 7 11 30.17 1022 10 16 0.00 0.00
7:53 am 07:53 Cloudy 45 7.2 26 -3.3 48 48 ENE 7 11 30.19 1022 10 16 0.00 0.00
8:53 am 08:53 Cloudy 47 8.3 26 -3.3 44 44 ESE 6 9 30.19 1023 10 16 0.00 0.00
9:53 am 09:53 Cloudy 49 9.4 26 -3.3 41 41 VRB 7 11 30.22 1023 10 16 0.00 0.00
10:53 am 10:53 Partly Cloudy 51 10.6 28 -2.2 41 41 ENE 7 11 30.22 1023 10 16 0.00 0.00
11:53 am 11:53 Sunny 55 12.8 27 -2.8 34 34 ENE 5 7 30.21 1023 10 16 0.00 0.00
12:53 pm 12:53 Sunny 58 14.4 28 -2.2 32 32 ENE 6 9 30.19 1022 10 16 0.00 0.00
1:53 pm 13:53 Sunny 60 15.6 28 -2.2 30 30 E 7 11 30.16 1022 10 16 0.00 0.00
2:53 pm 14:53 Sunny 62 16.7 28 -2.2 28 28 ENE 7 11 30.14 1021 10 16 0.00 0.00
3:53 pm 15:53 Sunny 64 17.8 29 -1.7 27 27 ENE 8 13 30.13 1020 10 16 0.00 0.00
4:53 pm 16:53 Sunny 63 17.2 29 -1.7 28 28 E 6 9 30.11 1020 10 16 0.00 0.00
5:53 pm 17:53 Sunny 62 16.7 30 -1.1 30 30 E 8 13 30.10 1019 10 16 0.00 0.00
6:53 pm 18:53 Sunny 57 13.9 32 0 39 39 ENE 5 7 30.11 1020 10 16 0.00 0.00
7:53 pm 19:53 Clear 55 12.8 31 -0.6 40 40 E 5 7 30.11 1020 10 16 0.00 0.00
8:53 pm 20:53 Clear 51 10.6 33 0.6 50 50 E 7 11 30.12 1020 10 16 0.00 0.00
9:53 pm 21:53 Clear 51 10.6 33 0.6 50 50 E 7 11 30.11 1020 10 16 0.00 0.00
10:53 pm 22:53 Clear 50 10 33 0.6 52 52 E 3 6 30.11 1020 10 16 0.00 0.00
11:53 pm 23:53 Clear 49 9.4 33 0.6 55 55 E 6 9 30.10 1019 10 16 0.00 0.00

Powered by AerisWeather